Time,TemperatureF,DewpointF,PressureIn,WindDirection,WindDirectionDegrees,WindSpeedMPH,WindSpeedGustMPH,Humidity,HourlyPrecipIn,Conditions,Clouds,dailyrainin,SoftwareType,DateUTC
2013-02-16 00:00:00,39.1,37.8,29.93,SW,219,3.0,3.0,95,0.00,,,0.00,Wunderground v.1.15,2013-02-16 05:00:00,
2013-02-16 00:10:00,39.1,37.8,29.92,SSW,205,3.0,37.0,95,0.00,,,0.00,Wunderground v.1.15,2013-02-16 05:10:00,
2013-02-16 00:20:00,39.1,37.8,29.92,South,183,3.0,3.0,95,0.00,,,0.00,Wunderground v.1.15,2013-02-16 05:20:00,
2013-02-16 00:30:00,39.1,37.8,29.92,SSW,200,3.0,37.0,95,0.00,,,0.00,Wunderground v.1.15,2013-02-16 05:30:00,
2013-02-16 00:40:00,39.1,37.8,29.92,SSE,148,3.0,37.0,95,0.00,,,0.00,Wunderground v.1.15,2013-02-16 05:40:00,
2013-02-16 00:50:00,39.2,37.9,29.92,SE,126,3.0,3.0,95,0.00,,,0.00,Wunderground v.1.15,2013-02-16 05:50:00,
2013-02-16 01:00:00,39.1,37.5,29.92,South,172,2.0,37.0,94,0.00,,,0.00,Wunderground v.1.15,2013-02-16 06:00:00,
2013-02-16 01:10:00,39.1,37.5,29.92,SSW,212,2.0,37.0,94,0.00,,,0.00,Wunderground v.1.15,2013-02-16 06:10:00,
2013-02-16 01:20:00,38.9,37.3,29.92,SSW,209,2.0,37.0,94,0.00,,,0.00,Wunderground v.1.15,2013-02-16 06:20:00,
2013-02-16 01:30:00,38.8,37.2,29.92,SSW,210,2.0,37.0,94,0.00,,,0.00,Wunderground v.1.15,2013-02-16 06:30:00,
2013-02-16 01:40:00,38.7,37.1,29.92,SW,231,1.0,37.0,94,0.00,,,0.00,Wunderground v.1.15,2013-02-16 06:40:00,
2013-02-16 01:50:00,38.7,37.1,29.92,SSW,204,2.0,2.0,94,0.00,,,0.00,Wunderground v.1.15,2013-02-16 06:50:00,
2013-02-16 02:00:00,38.7,37.1,29.92,SSW,200,2.0,2.0,94,0.00,,,0.00,Wunderground v.1.15,2013-02-16 07:00:00,
2013-02-16 02:10:00,38.5,36.9,29.92,SSW,212,2.0,37.0,94,0.00,,,0.00,Wunderground v.1.15,2013-02-16 07:10:00,
2013-02-16 02:20:00,38.4,36.8,29.91,SW,217,2.0,37.0,94,0.00,,,0.00,Wunderground v.1.15,2013-02-16 07:20:00,
2013-02-16 02:30:00,38.3,36.7,29.91,SSW,197,1.0,1.0,94,0.00,,,0.00,Wunderground v.1.15,2013-02-16 07:30:00,
2013-02-16 02:40:00,38.2,36.6,29.90,SSW,204,1.0,37.0,94,0.00,,,0.00,Wunderground v.1.15,2013-02-16 07:40:00,
2013-02-16 02:50:00,38.1,36.5,29.90,SE,132,1.0,1.0,94,0.00,,,0.00,Wunderground v.1.15,2013-02-16 07:50:00,
2013-02-16 03:00:00,38.1,36.5,29.90,SSW,204,1.0,37.0,94,0.00,,,0.00,Wunderground v.1.15,2013-02-16 08:00:00,
2013-02-16 03:10:00,38.2,36.6,29.89,SSW,204,1.0,1.0,94,0.00,,,0.00,Wunderground v.1.15,2013-02-16 08:10:00,
2013-02-16 03:20:00,38.2,36.6,29.89,SSW,210,1.0,37.0,94,0.00,,,0.00,Wunderground v.1.15,2013-02-16 08:20:00,
2013-02-16 03:30:00,38.1,36.5,29.89,South,176,1.0,1.0,94,0.00,,,0.00,Wunderground v.1.15,2013-02-16 08:30:00,
2013-02-16 03:40:00,36.9,34.8,29.89,NW,319,1.0,37.0,92,0.00,,,0.00,Wunderground v.1.15,2013-02-16 08:40:00,
2013-02-16 03:50:00,36.0,34.7,29.88,NW,316,2.0,2.0,95,0.00,,,0.00,Wunderground v.1.15,2013-02-16 08:50:00,
2013-02-16 04:00:00,35.6,34.3,29.88,NW,325,2.0,2.0,95,0.00,,,0.00,Wunderground v.1.15,2013-02-16 09:00:00,
2013-02-16 04:10:00,36.1,35.1,29.88,NW,316,1.0,1.0,96,0.00,,,0.00,Wunderground v.1.15,2013-02-16 09:10:00,
2013-02-16 04:20:00,36.0,35.0,29.87,NW,316,0.0,37.0,96,0.00,,,0.00,Wunderground v.1.15,2013-02-16 09:20:00,
2013-02-16 04:30:00,36.3,35.5,29.87,NW,316,0.0,37.0,97,0.00,,,0.00,Wunderground v.1.15,2013-02-16 09:30:00,
2013-02-16 04:40:00,36.3,35.3,29.87,NW,316,0.0,37.0,96,0.00,,,0.00,Wunderground v.1.15,2013-02-16 09:40:00,
2013-02-16 04:50:00,35.9,34.9,29.87,NW,316,0.0,37.0,96,0.00,,,0.00,Wunderground v.1.15,2013-02-16 09:50:00,
2013-02-16 05:00:00,35.5,34.5,29.86,NE,41,0.0,37.0,96,0.00,,,0.00,Wunderground v.1.15,2013-02-16 10:00:00,
2013-02-16 05:10:00,35.6,34.8,29.86,East,86,1.0,37.0,97,0.00,,,0.00,Wunderground v.1.15,2013-02-16 10:10:00,
2013-02-16 05:20:00,37.0,36.2,29.86,ESE,122,2.0,2.0,97,0.00,,,0.00,Wunderground v.1.15,2013-02-16 10:20:00,
2013-02-16 05:30:00,37.1,36.3,29.86,SSE,158,1.0,1.0,97,0.00,,,0.00,Wunderground v.1.15,2013-02-16 10:30:00,
2013-02-16 05:40:00,36.8,35.8,29.86,SE,139,0.0,37.0,96,0.00,,,0.00,Wunderground v.1.15,2013-02-16 10:40:00,
2013-02-16 05:50:00,37.2,36.2,29.86,West,274,0.0,37.0,96,0.00,,,0.00,Wunderground v.1.15,2013-02-16 10:50:00,
2013-02-16 06:00:00,37.8,37.0,29.86,SSW,212,1.0,1.0,97,0.00,,,0.00,Wunderground v.1.15,2013-02-16 11:00:00,
2013-02-16 06:10:00,37.8,36.8,29.86,SW,218,1.0,37.0,96,0.00,,,0.00,Wunderground v.1.15,2013-02-16 11:10:00,
2013-02-16 06:20:00,38.0,36.7,29.85,SSE,148,1.0,1.0,95,0.00,,,0.00,Wunderground v.1.15,2013-02-16 11:20:00,
2013-02-16 06:30:00,38.3,37.0,29.85,SE,134,1.0,37.0,95,0.00,,,0.00,Wunderground v.1.15,2013-02-16 11:30:00,
2013-02-16 06:40:00,38.1,36.8,29.85,SSW,212,0.0,37.0,95,0.00,,,0.00,Wunderground v.1.15,2013-02-16 11:40:00,
2013-02-16 06:50:00,38.5,37.2,29.85,SE,136,0.0,37.0,95,0.00,,,0.00,Wunderground v.1.15,2013-02-16 11:50:00,
2013-02-16 07:00:00,35.7,33.6,29.87,NW,309,3.0,37.0,92,0.00,,,0.00,Wunderground v.1.15,2013-02-16 12:00:00,
2013-02-16 07:10:00,35.1,33.8,29.87,NNW,330,5.0,5.0,95,0.00,,,0.00,Wunderground v.1.15,2013-02-16 12:10:00,
2013-02-16 07:20:00,35.6,34.6,29.87,NW,316,4.0,37.0,96,0.00,,,0.00,Wunderground v.1.15,2013-02-16 12:20:00,
2013-02-16 07:30:00,36.1,35.1,29.87,NW,312,4.0,37.0,96,0.00,,,0.00,Wunderground v.1.15,2013-02-16 12:30:00,
2013-02-16 07:40:00,36.5,35.5,29.87,North,359,5.0,5.0,96,0.00,,,0.00,Wunderground v.1.15,2013-02-16 12:40:00,
2013-02-16 07:50:00,36.8,36.0,29.88,NW,324,4.0,37.0,97,0.00,,,0.00,Wunderground v.1.15,2013-02-16 12:50:00,
2013-02-16 08:00:00,36.8,35.8,29.88,NNE,20,5.0,5.0,96,0.00,,,0.00,Wunderground v.1.15,2013-02-16 13:00:00,
2013-02-16 08:10:00,36.6,35.6,29.88,NNW,345,6.0,6.0,96,0.00,,,0.00,Wunderground v.1.15,2013-02-16 13:10:00,
2013-02-16 08:20:00,36.4,35.1,29.89,North,11,6.0,37.0,95,0.00,,,0.00,Wunderground v.1.15,2013-02-16 13:20:00,
2013-02-16 08:30:00,36.4,34.8,29.89,NNW,336,6.0,6.0,94,0.00,,,0.00,Wunderground v.1.15,2013-02-16 13:30:00,
2013-02-16 08:40:00,36.6,34.5,29.88,NW,311,6.0,37.0,92,0.00,,,0.00,Wunderground v.1.15,2013-02-16 13:40:00,
2013-02-16 08:50:00,37.1,34.7,29.87,North,356,6.0,6.0,91,0.00,,,0.00,Wunderground v.1.15,2013-02-16 13:50:00,
2013-02-16 09:00:00,37.6,34.9,29.87,NNW,330,7.0,37.0,90,0.00,,,0.00,Wunderground v.1.15,2013-02-16 14:00:00,
2013-02-16 09:10:00,38.2,35.2,29.87,NNE,13,5.0,37.0,89,0.00,,,0.00,Wunderground v.1.15,2013-02-16 14:10:00,
2013-02-16 09:20:00,38.8,35.6,29.87,NNE,18,6.0,37.0,88,0.00,,,0.00,Wunderground v.1.15,2013-02-16 14:20:00,
2013-02-16 09:30:00,39.5,36.0,29.87,NNW,343,6.0,37.0,87,0.00,,,0.00,Wunderground v.1.15,2013-02-16 14:30:00,
2013-02-16 09:40:00,40.4,36.2,29.87,NNW,340,7.0,37.0,85,0.00,,,0.00,Wunderground v.1.15,2013-02-16 14:40:00,
2013-02-16 09:50:00,40.9,36.1,29.87,North,8,7.0,7.0,83,0.00,,,0.00,Wunderground v.1.15,2013-02-16 14:50:00,
2013-02-16 10:00:00,40.6,35.8,29.86,NW,309,7.0,7.0,83,0.00,,,0.00,Wunderground v.1.15,2013-02-16 15:00:00,
2013-02-16 10:10:00,40.4,35.9,29.86,NNW,336,8.0,37.0,84,0.00,,,0.00,Wunderground v.1.15,2013-02-16 15:10:00,
2013-02-16 10:20:00,40.1,35.7,29.86,North,3,9.0,37.0,84,0.00,,,0.00,Wunderground v.1.15,2013-02-16 15:20:00,
2013-02-16 10:30:00,39.9,35.5,29.86,North,352,11.0,37.0,84,0.00,,,0.00,Wunderground v.1.15,2013-02-16 15:30:00,
2013-02-16 10:40:00,40.1,35.7,29.85,North,360,10.0,37.0,84,0.00,,,0.00,Wunderground v.1.15,2013-02-16 15:40:00,
2013-02-16 10:50:00,40.5,35.7,29.86,NNW,346,9.0,37.0,83,0.00,,,0.00,Wunderground v.1.15,2013-02-16 15:50:00,
2013-02-16 11:00:00,41.0,35.6,29.85,NNE,12,7.0,37.0,81,0.00,,,0.00,Wunderground v.1.15,2013-02-16 16:00:00,
2013-02-16 11:10:00,40.6,35.2,29.85,NW,318,9.0,37.0,81,0.00,,,0.00,Wunderground v.1.15,2013-02-16 16:10:00,
2013-02-16 11:20:00,40.4,35.6,29.84,NE,36,8.0,37.0,83,0.00,,,0.00,Wunderground v.1.15,2013-02-16 16:20:00,
2013-02-16 11:30:00,40.6,35.8,29.84,NNW,330,7.0,37.0,83,0.00,,,0.00,Wunderground v.1.15,2013-02-16 16:30:00,
2013-02-16 11:40:00,40.6,35.5,29.84,North,8,7.0,37.0,82,0.00,,,0.00,Wunderground v.1.15,2013-02-16 16:40:00,
2013-02-16 11:50:00,40.9,35.8,29.83,NNW,340,6.0,37.0,82,0.00,,,0.00,Wunderground v.1.15,2013-02-16 16:50:00,
2013-02-16 12:00:00,41.1,36.0,29.83,North,360,6.0,37.0,82,0.00,,,0.00,Wunderground v.1.15,2013-02-16 17:00:00,
2013-02-16 12:10:00,40.7,35.9,29.82,NNW,338,8.0,8.0,83,0.00,,,0.00,Wunderground v.1.15,2013-02-16 17:10:00,
2013-02-16 12:20:00,40.5,35.7,29.82,NNW,328,7.0,7.0,83,0.00,,,0.00,Wunderground v.1.15,2013-02-16 17:20:00,
2013-02-16 12:30:00,40.2,35.8,29.81,NNW,338,8.0,37.0,84,0.00,,,0.00,Wunderground v.1.15,2013-02-16 17:30:00,
2013-02-16 12:40:00,40.0,35.6,29.81,NNE,13,8.0,37.0,84,0.00,,,0.00,Wunderground v.1.15,2013-02-16 17:40:00,
2013-02-16 12:50:00,39.8,35.7,29.81,NNW,342,8.0,8.0,85,0.00,,,0.00,Wunderground v.1.15,2013-02-16 17:50:00,
2013-02-16 13:00:00,39.7,35.9,29.80,NNW,345,8.0,8.0,86,0.00,,,0.00,Wunderground v.1.15,2013-02-16 18:00:00,
2013-02-16 13:10:00,39.3,35.5,29.80,North,6,7.0,37.0,86,0.00,,,0.00,Wunderground v.1.15,2013-02-16 18:10:00,
2013-02-16 13:20:00,38.9,35.4,29.79,NW,309,7.0,7.0,87,0.00,,,0.00,Wunderground v.1.15,2013-02-16 18:20:00,
2013-02-16 13:30:00,38.6,35.4,29.79,NNE,18,7.0,37.0,88,0.00,,,0.00,Wunderground v.1.15,2013-02-16 18:30:00,
2013-02-16 13:40:00,38.3,35.1,29.78,NNW,342,8.0,8.0,88,0.00,,,0.00,Wunderground v.1.15,2013-02-16 18:40:00,
2013-02-16 13:50:00,38.2,35.2,29.78,NW,304,7.0,37.0,89,0.00,,,0.00,Wunderground v.1.15,2013-02-16 18:50:00,
2013-02-16 14:00:00,38.4,35.4,29.78,NW,310,6.0,37.0,89,0.00,,,0.00,Wunderground v.1.15,2013-02-16 19:00:00,
2013-02-16 14:10:00,38.3,35.3,29.78,NNE,13,6.0,37.0,89,0.00,,,0.00,Wunderground v.1.15,2013-02-16 19:10:00,
2013-02-16 14:20:00,38.1,35.1,29.77,North,11,8.0,37.0,89,0.00,,,0.00,Wunderground v.1.15,2013-02-16 19:20:00,
2013-02-16 14:30:00,38.0,35.3,29.77,NNW,345,7.0,37.0,90,0.00,,,0.00,Wunderground v.1.15,2013-02-16 19:30:00,
2013-02-16 14:40:00,37.9,35.2,29.77,NNW,328,7.0,37.0,90,0.00,,,0.00,Wunderground v.1.15,2013-02-16 19:40:00,
2013-02-16 14:50:00,37.8,35.4,29.77,NNE,26,7.0,37.0,91,0.00,,,0.00,Wunderground v.1.15,2013-02-16 19:50:00,
2013-02-16 15:00:00,37.7,35.3,29.77,North,5,7.0,7.0,91,0.00,,,0.00,Wunderground v.1.15,2013-02-16 20:00:00,
2013-02-16 15:10:00,37.7,35.3,29.77,NNW,346,7.0,7.0,91,0.00,,,0.00,Wunderground v.1.15,2013-02-16 20:10:00,
2013-02-16 15:20:00,37.6,35.2,29.76,NE,53,8.0,8.0,91,0.00,,,0.00,Wunderground v.1.15,2013-02-16 20:20:00,
2013-02-16 15:30:00,37.5,35.1,29.76,NNE,13,6.0,37.0,91,0.00,,,0.00,Wunderground v.1.15,2013-02-16 20:30:00,
2013-02-16 15:40:00,37.5,35.1,29.76,North,356,6.0,6.0,91,0.00,,,0.00,Wunderground v.1.15,2013-02-16 20:40:00,
2013-02-16 15:50:00,37.3,34.9,29.76,North,354,7.0,7.0,91,0.00,,,0.00,Wunderground v.1.15,2013-02-16 20:50:00,
2013-02-16 16:00:00,37.2,34.8,29.76,NW,322,7.0,37.0,91,0.00,,,0.00,Wunderground v.1.15,2013-02-16 21:00:00,
2013-02-16 16:10:00,37.1,35.0,29.76,WNW,288,7.0,37.0,92,0.00,,,0.00,Wunderground v.1.15,2013-02-16 21:10:00,
2013-02-16 16:20:00,37.0,34.9,29.76,NNE,31,7.0,7.0,92,0.00,,,0.00,Wunderground v.1.15,2013-02-16 21:20:00,
2013-02-16 16:30:00,36.9,34.8,29.75,North,10,7.0,37.0,92,0.00,,,0.00,Wunderground v.1.15,2013-02-16 21:30:00,
2013-02-16 16:40:00,36.7,34.6,29.75,NE,36,7.0,37.0,92,0.00,,,0.00,Wunderground v.1.15,2013-02-16 21:40:00,
2013-02-16 16:50:00,36.6,34.8,29.75,WNW,302,5.0,37.0,93,0.00,,,0.00,Wunderground v.1.15,2013-02-16 21:50:00,
2013-02-16 17:00:00,36.7,34.9,29.75,NNE,23,6.0,37.0,93,0.00,,,0.00,Wunderground v.1.15,2013-02-16 22:00:00,
2013-02-16 17:10:00,36.7,34.6,29.74,NE,34,7.0,7.0,92,0.00,,,0.00,Wunderground v.1.15,2013-02-16 22:10:00,
2013-02-16 17:20:00,36.8,34.7,29.75,NNW,338,7.0,7.0,92,0.00,,,0.00,Wunderground v.1.15,2013-02-16 22:20:00,
2013-02-16 17:30:00,36.8,34.7,29.75,NNE,21,6.0,37.0,92,0.00,,,0.00,Wunderground v.1.15,2013-02-16 22:30:00,
2013-02-16 17:40:00,36.9,34.8,29.75,North,11,6.0,6.0,92,0.00,,,0.00,Wunderground v.1.15,2013-02-16 22:40:00,
2013-02-16 17:50:00,36.8,34.7,29.75,NE,37,5.0,37.0,92,0.00,,,0.00,Wunderground v.1.15,2013-02-16 22:50:00,
2013-02-16 18:00:00,36.9,34.8,29.75,NNE,24,4.0,4.0,92,0.00,,,0.00,Wunderground v.1.15,2013-02-16 23:00:00,
2013-02-16 18:10:00,37.2,35.1,29.75,NNE,24,5.0,37.0,92,0.00,,,0.00,Wunderground v.1.15,2013-02-16 23:10:00,
2013-02-16 18:20:00,37.6,35.2,29.75,NE,40,8.0,37.0,91,0.00,,,0.00,Wunderground v.1.15,2013-02-16 23:20:00,
2013-02-16 18:30:00,37.7,35.0,29.75,NNE,26,8.0,8.0,90,0.00,,,0.00,Wunderground v.1.15,2013-02-16 23:30:00,
2013-02-16 18:40:00,37.6,34.9,29.74,North,6,7.0,7.0,90,0.00,,,0.00,Wunderground v.1.15,2013-02-16 23:40:00,
2013-02-16 18:50:00,37.6,34.9,29.74,NNW,342,6.0,6.0,90,0.00,,,0.00,Wunderground v.1.15,2013-02-16 23:50:00,
2013-02-16 19:00:00,37.6,34.9,29.74,North,8,7.0,7.0,90,0.00,,,0.00,Wunderground v.1.15,2013-02-17 00:00:00,
2013-02-16 19:10:00,37.6,34.9,29.73,NE,46,7.0,37.0,90,0.00,,,0.00,Wunderground v.1.15,2013-02-17 00:10:00,
2013-02-16 19:20:00,37.5,34.8,29.73,NNW,334,7.0,37.0,90,0.00,,,0.00,Wunderground v.1.15,2013-02-17 00:20:00,
2013-02-16 19:30:00,37.4,35.0,29.73,NE,36,7.0,7.0,91,0.00,,,0.00,Wunderground v.1.15,2013-02-17 00:30:00,
2013-02-16 19:40:00,37.3,34.9,29.72,NNE,15,6.0,37.0,91,0.00,,,0.00,Wunderground v.1.15,2013-02-17 00:40:00,
2013-02-16 19:50:00,37.3,34.9,29.72,NNW,338,7.0,37.0,91,0.00,,,0.00,Wunderground v.1.15,2013-02-17 00:50:00,
2013-02-16 20:00:00,37.3,34.9,29.72,NNW,340,7.0,37.0,91,0.00,,,0.00,Wunderground v.1.15,2013-02-17 01:00:00,
2013-02-16 20:10:00,37.3,34.9,29.71,North,354,7.0,37.0,91,0.00,,,0.00,Wunderground v.1.15,2013-02-17 01:10:00,
2013-02-16 20:20:00,37.2,34.8,29.71,NNE,24,7.0,37.0,91,0.00,,,0.00,Wunderground v.1.15,2013-02-17 01:20:00,
2013-02-16 20:30:00,37.3,34.6,29.70,NE,47,8.0,37.0,90,0.00,,,0.00,Wunderground v.1.15,2013-02-17 01:30:00,
2013-02-16 20:40:00,37.4,34.7,29.70,NNE,15,8.0,8.0,90,0.00,,,0.00,Wunderground v.1.15,2013-02-17 01:40:00,
2013-02-16 20:50:00,37.4,34.7,29.70,NNE,15,7.0,37.0,90,0.00,,,0.00,Wunderground v.1.15,2013-02-17 01:50:00,
2013-02-16 21:00:00,37.4,34.7,29.69,North,354,8.0,8.0,90,0.00,,,0.00,Wunderground v.1.15,2013-02-17 02:00:00,
2013-02-16 21:10:00,37.2,34.5,29.68,NNW,338,9.0,9.0,90,0.00,,,0.00,Wunderground v.1.15,2013-02-17 02:10:00,
2013-02-16 21:20:00,36.9,34.5,29.68,NNE,23,9.0,37.0,91,0.00,,,0.00,Wunderground v.1.15,2013-02-17 02:20:00,
2013-02-16 21:30:00,36.7,34.0,29.68,North,11,10.0,37.0,90,0.00,,,0.00,Wunderground v.1.15,2013-02-17 02:30:00,
2013-02-16 21:40:00,36.7,34.3,29.67,NE,35,10.0,37.0,91,0.00,,,0.00,Wunderground v.1.15,2013-02-17 02:40:00,
2013-02-16 21:50:00,36.5,34.4,29.67,ENE,64,9.0,37.0,92,0.00,,,0.00,Wunderground v.1.15,2013-02-17 02:50:00,
2013-02-16 22:00:00,36.3,34.2,29.66,NNE,30,10.0,10.0,92,0.00,,,0.00,Wunderground v.1.15,2013-02-17 03:00:00,
2013-02-16 22:10:00,36.1,34.0,29.65,NNE,25,9.0,37.0,92,0.00,,,0.00,Wunderground v.1.15,2013-02-17 03:10:00,
2013-02-16 22:20:00,35.9,33.8,29.65,NNE,26,9.0,37.0,92,0.00,,,0.00,Wunderground v.1.15,2013-02-17 03:20:00,
2013-02-16 22:30:00,35.7,33.6,29.65,North,5,9.0,37.0,92,0.00,,,0.00,Wunderground v.1.15,2013-02-17 03:30:00,
2013-02-16 22:40:00,35.5,33.4,29.64,NNE,29,9.0,9.0,92,0.00,,,0.00,Wunderground v.1.15,2013-02-17 03:40:00,
2013-02-16 22:50:00,35.5,33.4,29.63,NNE,23,10.0,37.0,92,0.00,,,0.00,Wunderground v.1.15,2013-02-17 03:50:00,
2013-02-16 23:00:00,35.4,33.6,29.63,NNE,20,11.0,11.0,93,0.00,,,0.00,Wunderground v.1.15,2013-02-17 04:00:00,
2013-02-16 23:10:00,35.3,33.5,29.61,NNE,30,8.0,37.0,93,0.00,,,0.00,Wunderground v.1.15,2013-02-17 04:10:00,
2013-02-16 23:20:00,35.3,33.5,29.60,NW,309,12.0,12.0,93,0.00,,,0.00,Wunderground v.1.15,2013-02-17 04:20:00,
2013-02-16 23:30:00,35.3,33.2,29.60,NNW,334,11.0,11.0,92,0.00,,,0.00,Wunderground v.1.15,2013-02-17 04:30:00,
2013-02-16 23:40:00,35.4,33.0,29.60,NE,54,11.0,11.0,91,0.00,,,0.00,Wunderground v.1.15,2013-02-17 04:40:00,
2013-02-16 23:50:00,35.5,33.1,29.59,North,4,11.0,37.0,91,0.00,,,0.00,Wunderground v.1.15,2013-02-17 04:50:00,